Simultaneous Nadir Overpasses (SNOs) Predictions

Prediction of SNOs between AQUA and METOP-C Satellite Orbit:

Table of predicted SNOs for the next 14.0 days since TLE Epoch: 7/21/2023
Index Date (AQUA) Time (AQUA) Lat,Lon (AQUA) SZA (AQUA ) Date (METOP-C) Time (METOP-C) Lat,Lon (METOP-C) SZA (METOP-C ) Distance(km) Time Diff (sec)
1 07/22/2023 17:22:17 -74.60, 95.51 125.63 07/22/2023 17:21:16 -74.57, 95.52 125.65 2.92 61
2 07/22/2023 18:11:43 74.64, -96.95 54.42 07/22/2023 18:11:54 74.63, -97.00 54.41 1.87 11
3 07/22/2023 19:01:18 -75.22, 69.19 124.95 07/22/2023 19:02:24 -75.22, 71.99 125.03 79.62 66
4 07/25/2023 11:14:45 -74.63,-172.66 125.03 07/25/2023 11:14:13 -74.62,-172.61 125.04 2.14 32
5 07/25/2023 12:04:11 74.68, -5.13 55.04 07/25/2023 12:04:51 74.67, -5.12 55.03 0.66 40
6 07/28/2023 04:17:45 74.50, 111.94 55.44 07/28/2023 04:16:33 74.39, 111.24 55.37 23.89 72
7 07/28/2023 05:07:12 -74.66, -80.82 124.38 07/28/2023 05:07:10 -74.65, -80.76 124.39 2.33 2
8 07/28/2023 05:56:38 74.72, 86.69 55.69 07/28/2023 05:57:48 74.71, 86.74 55.68 1.73 70
9 07/30/2023 22:10:13 74.64,-156.49 56.24 07/30/2023 22:09:26 74.62,-156.42 56.22 3.26 47
10 07/30/2023 22:59:38 -74.70, 11.01 123.69 07/30/2023 23:00:07 -74.68, 11.06 123.72 3.10 29
11 08/02/2023 15:13:01 -74.11, 129.09 123.65 08/02/2023 15:11:54 -74.08, 126.62 123.59 75.19 67
12 08/02/2023 16:02:36 74.63, -64.54 56.92 08/02/2023 16:02:22 74.64, -64.61 56.93 2.21 14



Historial Predications of SNOs between AQUA and METOP-C
